Freeport, IL

2:43 AM CST on December 06, 2019 (GMT -0600)
Albertus

Weather History for KFEP - November, 2019

Change the Weather History Date:

Friday, November 15, 2019

  Actual Average Record
Temperature  
Mean Temperature 27 °F -  
Max Temperature 37 °F 44 °F 68 °F (1990)
Min Temperature 17 °F 27 °F 11 °F (2014)
Degree Days  
Heating Degree Days 38    
Moisture  
Dew Point 22 °F    
Average Humidity 85    
Maximum Humidity 99    
Minimum Humidity 68    
Precipitation  
Precipitation 0.01 in - - ()
Sea Level Pressure  
Sea Level Pressure 30.36 in    
Wind  
Wind Speed 6 mph (West)    
Max Wind Speed 12 mph    
Max Gust Speed -    
Visibility 9 miles    
Events      
Averages and records for this station are not official NWS values.
T = Trace of Precipitation, MM = Missing Value Source: NWS Daily Summary

Daily Weather History Graph

Daily Weather History Graph

Search for Another Location

Airport or City:

Astronomy

Nov. 15, 2019 Rise Set
Actual Time 6:48 AM CST 4:36 PM CST
Civil Twilight 6:18 AM CST 5:06 PM CST
Nautical Twilight 5:44 AM CST 5:40 PM CST
Astronomical Twilight 5:11 AM CST 6:13 PM CST
Moon 7:10 PM CST (11/15) 9:47 AM CST (11/15)
Length of Visible Light 10h 48m
Length of Day
9h 48m
Waning Gibbous, 90% of the Moon is Illuminated
Nov 15
Waning Gibbous
Nov 19
Last Quarter
Nov 26
New
Dec 4
First Quarter
Dec 11
Full

Hourly Weather History & Observations

Time (CST) Temp. Windchill Dew Point Humidity Pressure Visibility Wind Dir Wind Speed Gust Speed Precip Events Conditions
12:15 AM 19.4 °F 7.9 °F 15.6 °F 85% 30.31 in 10.0 mi WSW 10.4 mph - N/A   Clear
12:35 AM 19.0 °F 6.8 °F 15.4 °F 86% 30.32 in 10.0 mi West 11.5 mph - N/A   Clear
12:55 AM 17.8 °F 7.5 °F 14.9 °F 88% 30.31 in 7.0 mi West 8.1 mph - N/A   Clear
1:15 AM 18.0 °F 7.7 °F 15.1 °F 88% 30.31 in 10.0 mi West 8.1 mph - N/A   Clear
1:35 AM 18.5 °F 8.4 °F 15.4 °F 88% 30.31 in 10.0 mi WSW 8.1 mph - N/A   Clear
1:55 AM 17.8 °F 7.5 °F 14.7 °F 88% 30.31 in 10.0 mi SW 8.1 mph - N/A   Clear
2:15 AM 18.3 °F 8.2 °F 15.6 °F 89% 30.31 in 10.0 mi WSW 8.1 mph - N/A   Clear
2:35 AM 19.0 °F 10.0 °F 15.8 °F 87% 30.31 in 10.0 mi WSW 6.9 mph - N/A   Clear
2:55 AM 18.9 °F 10.8 °F 15.6 °F 87% 30.31 in 10.0 mi WSW 5.8 mph - N/A   Clear
3:15 AM 18.9 °F 8.8 °F 15.6 °F 87% 30.31 in 10.0 mi WSW 8.1 mph - N/A   Clear
3:35 AM 19.0 °F 9.0 °F 15.8 °F 87% 30.31 in 7.0 mi WSW 8.1 mph - N/A   Clear
3:55 AM 19.0 °F 11.1 °F 15.8 °F 87% 30.32 in 10.0 mi West 5.8 mph - N/A   Clear
4:15 AM 18.7 °F 10.6 °F 15.6 °F 88% 30.32 in 10.0 mi West 5.8 mph - N/A   Clear
4:35 AM 18.1 °F 7.1 °F 15.4 °F 89% 30.32 in 10.0 mi WSW 9.2 mph - N/A   Clear
4:55 AM 18.1 °F 8.9 °F 15.6 °F 90% 30.32 in 10.0 mi West 6.9 mph - N/A   Clear
5:15 AM 18.3 °F 9.1 °F 15.6 °F 89% 30.32 in 10.0 mi West 6.9 mph - N/A   Clear
5:35 AM 18.1 °F 7.9 °F 15.6 °F 90% 30.32 in 10.0 mi West 8.1 mph - N/A   Clear
5:55 AM 18.1 °F 7.9 °F 15.8 °F 91% 30.33 in 10.0 mi West 8.1 mph - N/A   Clear
6:15 AM 18.3 °F 11.5 °F 15.8 °F 90% 30.33 in 10.0 mi West 4.6 mph - N/A   Clear
6:35 AM 17.6 °F 10.7 °F 15.4 °F 91% 30.33 in 7.0 mi WSW 4.6 mph - N/A   Clear
6:55 AM 17.6 °F 10.7 °F 15.3 °F 91% 30.33 in 7.0 mi WSW 4.6 mph - N/A   Clear
7:15 AM 17.2 °F 10.2 °F 14.9 °F 91% 30.34 in 5.0 mi WSW 4.6 mph - N/A   Clear
7:35 AM 18.0 °F 9.8 °F 15.1 °F 88% 30.34 in 7.0 mi WSW 5.8 mph - N/A   Clear
7:55 AM 19.2 °F 11.3 °F 15.6 °F 86% 30.35 in 7.0 mi WSW 5.8 mph - N/A   Clear
8:15 AM 20.3 °F 12.5 °F 16.3 °F 85% 30.36 in 7.0 mi West 5.8 mph - N/A   Clear
8:35 AM 21.2 °F 13.6 °F 16.7 °F 83% 30.36 in 7.0 mi West 5.8 mph - N/A   Clear
8:55 AM 22.6 °F 15.3 °F 17.6 °F 81% 30.36 in 7.0 mi West 5.8 mph - N/A   Clear
9:15 AM 24.3 °F 17.3 °F 18.5 °F 79% 30.37 in 7.0 mi WNW 5.8 mph - N/A   Scattered Clouds
9:35 AM 25.0 °F 19.3 °F 19.0 °F 78% 30.38 in 10.0 mi West 4.6 mph - 0.01 in   Scattered Clouds
9:55 AM 25.9 °F 20.3 °F 19.9 °F 78% 30.38 in 10.0 mi WSW 4.6 mph - 0.01 in   Mostly Cloudy
10:15 AM 27.7 °F - 21.0 °F 76% 30.38 in 7.0 mi Calm Calm - N/A   Overcast
10:35 AM 29.8 °F - 22.1 °F 73% 30.39 in 10.0 mi Calm Calm - N/A   Overcast
10:55 AM 30.2 °F - 22.6 °F 73% 30.39 in 10.0 mi Calm Calm - N/A   Overcast
11:15 AM 31.3 °F - 23.2 °F 72% 30.39 in 10.0 mi Calm Calm - N/A   Overcast
11:35 AM 31.3 °F - 23.7 °F 74% 30.38 in 10.0 mi Calm Calm - N/A   Overcast
11:55 AM 32.0 °F - 24.3 °F 73% 30.38 in 7.0 mi Calm Calm - N/A   Overcast
12:15 PM 32.9 °F - 25.2 °F 73% 30.37 in 7.0 mi Calm Calm - N/A   Overcast
12:35 PM 34.3 °F - 25.7 °F 71% 30.37 in 10.0 mi Calm Calm - N/A   Overcast
12:55 PM 36.0 °F - 26.4 °F 68% 30.37 in 10.0 mi Calm Calm - N/A   Scattered Clouds
1:15 PM 36.5 °F - 27.3 °F 69% 30.36 in 10.0 mi Calm Calm - N/A   Clear
1:35 PM 36.5 °F - 27.5 °F 70% 30.36 in 10.0 mi Calm Calm - N/A   Clear
1:55 PM 36.9 °F 33.1 °F 28.4 °F 71% 30.36 in 10.0 mi North 4.6 mph - N/A   Clear
2:15 PM 37.6 °F 35.1 °F 28.9 °F 71% 30.36 in 10.0 mi North 3.5 mph - N/A   Clear
2:35 PM 37.6 °F 35.1 °F 28.9 °F 71% 30.36 in 10.0 mi NNW 3.5 mph - N/A   Clear
2:55 PM 37.8 °F 34.2 °F 29.1 °F 71% 30.36 in 10.0 mi North 4.6 mph - N/A   Clear
3:15 PM 37.4 °F 32.8 °F 28.9 °F 71% 30.37 in 10.0 mi NNE 5.8 mph - N/A   Clear
3:35 PM 36.7 °F 34.1 °F 28.4 °F 72% 30.37 in 10.0 mi NNE 3.5 mph - N/A   Clear
3:55 PM 36.1 °F 33.5 °F 28.4 °F 73% 30.37 in 10.0 mi North 3.5 mph - N/A   Clear
4:15 PM 34.9 °F 30.8 °F 27.9 °F 76% 30.37 in 10.0 mi NNE 4.6 mph - N/A   Clear
4:35 PM 33.3 °F 28.9 °F 27.3 °F 79% 30.38 in 10.0 mi NNE 4.6 mph - N/A   Clear
4:55 PM 32.4 °F - 28.0 °F 84% 30.38 in 10.0 mi Calm Calm - N/A   Clear
5:15 PM 31.6 °F - 27.0 °F 83% 30.38 in 10.0 mi Calm Calm - N/A   Clear
5:35 PM 32.0 °F - 27.5 °F 83% 30.38 in 10.0 mi Calm Calm - N/A   Clear
5:55 PM 29.7 °F - 28.0 °F 94% 30.38 in 10.0 mi Calm Calm - N/A   Clear
6:15 PM 26.1 °F - 25.3 °F 97% 30.39 in 10.0 mi Calm Calm - N/A   Clear
6:35 PM 27.9 °F - 26.4 °F 94% 30.39 in 10.0 mi Calm Calm - N/A   Clear
6:55 PM 26.1 °F - 25.2 °F 96% 30.40 in 7.0 mi Calm Calm - N/A   Clear
7:15 PM 27.1 °F - 25.5 °F 94% 30.40 in 10.0 mi Calm Calm - N/A   Clear
7:35 PM 25.0 °F - 23.9 °F 96% 30.41 in 10.0 mi Calm Calm - N/A   Clear
7:55 PM 24.6 °F 20.3 °F 24.1 °F 98% 30.41 in 7.0 mi East 3.5 mph - N/A   Clear
8:15 PM 25.3 °F 17.6 °F 24.6 °F 97% 30.40 in 10.0 mi East 6.9 mph - N/A   Clear
8:35 PM 24.6 °F 17.7 °F 23.9 °F 97% 30.40 in 7.0 mi East 5.8 mph - N/A   Clear
8:55 PM 25.0 °F 20.7 °F 24.1 °F 96% 30.41 in 7.0 mi East 3.5 mph - N/A   Clear
9:15 PM 25.0 °F - 24.3 °F 97% 30.41 in 7.0 mi Calm Calm - N/A   Clear
9:35 PM 24.4 °F 18.6 °F 24.3 °F 99% 30.41 in 7.0 mi ESE 4.6 mph - N/A   Clear
9:55 PM 26.2 °F 19.6 °F 24.6 °F 94% 30.41 in 7.0 mi East 5.8 mph - N/A   Clear
10:15 PM 25.3 °F 21.1 °F 24.8 °F 98% 30.41 in 7.0 mi ESE 3.5 mph - N/A   Clear
10:35 PM 23.9 °F 18.0 °F 23.5 °F 99% 30.41 in 7.0 mi ESE 4.6 mph - N/A   Clear
10:55 PM 23.0 °F 15.8 °F 22.8 °F 99% 30.41 in 5.0 mi SE 5.8 mph - N/A   Clear
11:15 PM 25.2 °F 18.3 °F 23.9 °F 95% 30.41 in 7.0 mi SE 5.8 mph - N/A   Clear
11:35 PM 23.4 °F - 22.1 °F 95% 30.41 in 5.0 mi Calm Calm - N/A   Clear
11:55 PM 23.5 °F 16.4 °F 22.8 °F 97% 30.42 in 5.0 mi ESE 5.8 mph - N/A   Clear